HULIANWAN GAOGUI-02 (H*)

Last updated on Wed Dec 17 2025 00:02:54 GMT+0000 (Coordinated Universal Time)

1 60327U 24135A 25350.35183595 -.00000151 00000+0 00000+0 0 9993 2 60327 0.0305 51.0737 0004775 250.6004 63.2997 1.00268264 5663
UTC large
Height (km)
Speed (km/s)
/
Latitude / Longitude
Inclination (degrees)
Orbital Period (minutes)
Azimuth
Elevation
Range (km)
Doppler Factor

Next 0 passes for location: London (51.5072 / 0.1276)

Sorry there are no passes over London.